Filtrer par Nom Sexe Groupe d'age
Virenque 92km 2005
RG. DOS. TEMPS CAT RG. POINTS
1 2238 CLAIR CEDRIC 01:33:21:000 C 1 0.00 LE PRADET, FRANCE
2 2436 JACOB MAX 01:33:22:000 C 2 0.00 LE PRADET, FRANCE
3 2614 PIGAGLIO KEVIN 01:33:23:000 C 3 0.00 LES SALINS D HYERES, FRANCE
4 2286 SANCHEZ FABIEN 01:33:26:000 C 4 0.00 LA LONDE, FRANCE
5 2634 VERDERAME FREDERIC 01:33:28:000 C 5 0.00 PLAN DE LUQUES, FRANCE
6 2266 FREMIOT ANTHONY 01:33:33:000 D 1 0.00 HYERES, FRANCE
7 2274 OLSTHOORN CHARLES 01:37:55:000 C 6 0.00 GIENS - HYERES, FRANCE
8 2281 GRAS STEPHANE 01:37:56:000 D 2 0.00 HYERES, FRANCE
9 2020 NAVARRO JULIEN 01:37:57:000 D 1 0.00 LA CRAU, FRANCE
10 2629 SCARONE ANDRE 01:37:57:000 F 1 0.00 HYERES, FRANCE
11 2019 NAVARRO NICOLAS 01:37:58:000 D 2 0.00 LA CRAU, FRANCE
12 2225 BAUCHER BENJAMIN 01:37:59:000 C 7 0.00 BRIGNOLES, FRANCE
13 2404 CIBELLY FABIEN DICIOCCIO JULIEN 01:37:59:000 H 1 0.00 , FRANCE
14 2482 BROCCARDO JEAN MARC 01:37:59:000 E 1 0.00 HYERES, FRANCE
15 2615 CATIA SEKKIOU KEVIN 01:37:59:000 D 3 0.00 VARAGES, FRANCE
16 2134 VEYRET JACKY 01:37:59:300 E 2 0.00 HYERES, FRANCE
17 2096 MESINI GEOFFREY 01:38:01:000 D 4 0.00 LA GARDE, FRANCE
18 2057 BERTIN PATRICK 01:40:01:000 E 3 0.00 CALLAS, FRANCE
19 2193 PELLE DANIEL 01:40:02:000 E 4 0.00 BAR SUR LOUP, FRANCE
20 2243 BOUSSET PATRICK 01:40:03:000 E 5 0.00 BORMES LES MIMOSAS, FRANCE
21 2454 ARGANT THIERRY 01:40:04:000 E 6 0.00 VILLENEUVE, FRANCE
22 2131 SANTORO GUILLERMO 01:40:05:000 E 7 0.00 LA LONDE LES MAURES, FRANCE
23 2271 LE CLECH ANTHONY 01:40:14:000 C 8 0.00 HYERES, FRANCE
24 47 BOUSCHON PATRICK 01:40:55:000 D 3 0.00 MONTELIMAR, FRANCE
25 2103 MARINO MARIO 01:40:55:000 E 8 0.00 GAP, FRANCE
26 46 GARAND GILLES 01:40:56:000 D 4 0.00 MONTELIMAR, FRANCE
27 2481 CHABOT GILLES 01:42:18:000 F 2 0.00 REMOLLON, FRANCE
28 949 SOCQUET ROBERT 01:42:20:000 D 5 0.00 FREJUS, FRANCE
29 2181 DECLERCK FREDERIC 01:45:07:000 D 6 0.00 CHATEAUNEUF LES MARTIGUES, FRANCE
30 2244 BALANCA FREDERIC 01:45:07:000 D 7 0.00 TOULON, FRANCE
31 2026 CHARDON GILDAS 01:45:08:000 D 8 0.00 HYERES, FRANCE
32 2063 COUANON MICKAEL 01:45:08:000 D 5 0.00 CAGNES SUR MER, FRANCE
33 35 DERBEZ THIERRY 01:45:09:000 E 9 0.00 GASSIN, France
34 2177 LORENT JEAN FRANCOIS 01:45:09:000 E 10 0.00 LA LONDE LES MAURES, FRANCE
35 2005 ROUX ARNAUD 01:45:10:000 C 9 0.00 SIX FOURS LES PLAGES, FRANCE
36 19 ASCENSIO CHRISTIAN 01:45:11:000 E 11 0.00 , FRANCE
37 2262 ICARDI DAVID 01:45:11:000 D 9 0.00 HYERES, FRANCE
38 2654 CHAPALAIN CHRISTOPHE 01:45:11:000 D 10 0.00 HYERES, FRANCE
39 2150 TARRICO ANDRE 01:45:12:000 E 12 0.00 BRIGNOLES, FRANCE
40 2464 PONZONE FRANCK 01:45:12:000 D 11 0.00 HYERES, FRANCE
41 2006 LEJEUNE PIERRE ANTOINE 01:45:13:000 D 12 0.00 LA GARDE, FRANCE
42 2277 BERNARD DANIEL 01:45:13:000 F 3 0.00 SOLLIES VILLE, FRANCE
43 2628 AUSSET PASCAL 01:45:13:000 E 13 0.00 SIGOYER, FRANCE
44 2183 MICHEL ROMAIN 01:45:14:000 C 10 0.00 PUGET THENIERS, FRANCE
45 2280 LE CLECH PASCAL 01:45:14:000 E 14 0.00 HYERES, FRANCE
46 2463 ORLANDI OLIVIER 01:45:14:000 D 13 0.00 LES 2 ALPES, FRANCE
47 2204 BAUDOIN LIONEL 01:45:15:000 C 11 0.00 GAREOULT, FRANCE
48 2473 GODEAU ALEXANDRE 01:45:16:000 C 12 0.00 LE POINCONNET, FRANCE
49 2082 CEAUX NICOLAS 01:45:17:000 D 6 0.00 LA BOURBOULE, FRANCE
50 18 BONNET FRANCK 01:45:18:000 E 15 0.00 , FRANCE
51 2465 SUPPA JEAN JACQUES 01:45:26:000 D 14 0.00 HYERES, FRANCE
52 2406 AMIC OLIVIER 01:47:45:000 D 15 0.00 HYERES, FRANCE
53 2618 PIQUE JOHAN 01:47:45:000 D 7 0.00 MOUGINS, FRANCE
54 2222 ZANNETTACCI BRUNO 01:47:46:000 E 16 0.00 CADOLIVE, FRANCE
55 2178 DEGOUVE DE NUNCQUES AMAURY 01:47:47:000 D 8 0.00 GAREOULT, FRANCE
56 2257 BOURRET THIERRY 01:47:48:000 E 17 0.00 CASTELNAU LE LEZ, FRANCE
57 2261 GIRARDO REGIS 01:47:49:000 E 18 0.00 HYERES, FRANCE
58 2651 MINAUD SYLVAIN 01:47:49:000 E 19 0.00 ST CYR SUR MER, FRANCE
59 2199 VALLEE BERNARD 01:47:50:000 F 4 0.00 BANDOL, FRANCE
60 2211 GARAMBOIS REMI 01:47:50:000 C 13 0.00 LE BEAUSSET, FRANCE
61 2451 GIRAUD DIDIER 01:47:51:000 E 20 0.00 LA GARDE, FRANCE
62 118 HENRIETTE SEBASTIEN 01:48:47:000 C 14 0.00 LA LONDE LES MAURES, FRANCE
63 2241 NOTIN SEBASTIEN 01:48:47:000 C 15 0.00 LA LONDE LES MAURES, FRANCE
65 2621 TELLIER DAVY 01:48:50:000 D 16 0.00 GONFARON, FRANCE
66 2648 ROBELET ALEXANDRE 01:48:50:000 D 17 0.00 MARSEILLE, FRANCE
67 2484 HUET BENOIT 01:48:52:000 C 16 0.00 NICE, FRANCE
68 49 COEFFARD GERARD 01:48:53:000 G 1 0.00 MARSEILLE, FRANCE
69 2064 MIGLIACCIO PHILIPPE 01:49:44:000 C 17 0.00 LA LONDE, FRANCE
70 2209 BRIANT JACQUES 01:49:45:000 F 5 0.00 MARSEILLE, France
71 2441 DELOISON ERIC 01:49:45:000 E 21 0.00 JUAN LES PINS, FRANCE
72 2606 ROSELLO ANDRE 01:49:46:000 D 18 0.00 LA GARDE, FRANCE
73 2290 GABRIELLI ROBERT 01:49:48:000 E 22 0.00 MOUANS SARTOUX, FRANCE
74 2655 CALLEC PHILIPPE 01:49:51:000 D 19 0.00 LA SEYNE S/MER, FRANCE
75 2200 MIGNARD ANDR 01:49:52:000 G 2 0.00 SIX FOURS, FRANCE
76 2414 ALLANOS VERONIQUE 01:49:53:000 AB 1 0.00 CHAMBERY, FRANCE
77 2438 MORETTI LAURENT 01:49:53:000 E 23 0.00 NICE, AUTRICHE
78 2486 FRERE JEAN YVES 01:49:53:000 F 6 0.00 OLLIOULES, FRANCE
79 2147 NICOLAS GEORGES 01:49:54:000 G 3 0.00 LE VAL, FRANCE
80 2478 BAZILE PASCAL 01:49:54:000 E 24 0.00 HYERES, FRANCE
81 2265 FERRANDO JEAN PHILIPPE 01:49:55:000 D 20 0.00 HYERES, FRANCE
82 2639 GAMBOA JOAQUIM 01:49:55:000 G 4 0.00 BRIGNOLES, FRANCE
83 2174 GALAS JEAN MICHEL 01:50:40:000 E 25 0.00 HYERES, FRANCE
84 2184 SAINT MARTIN CLEMENT 01:51:55:000 D 9 0.00 CHATEAUNEUF LE ROUGE, FRANCE
85 51 LE DORTZ YANN 01:52:04:000 D 21 0.00 MAGNY LE HONGRE, FRANCE
86 2259 GARNERO PASCAL 01:52:27:000 E 26 0.00 MANDELIEU, FRANCE
87 2472 MESCHINO PHILIPPE 01:53:07:000 E 27 0.00 SANARY, FRANCE
88 2101 PATROSSO RICHARD 01:53:08:000 C 18 0.00 MARSEILLE, FRANCE
89 2153 BEDNARCZYK OLIVIER 01:53:08:000 D 22 0.00 LA CRAU, FRANCE
90 2412 COURTOIS KEVIN 01:53:08:000 C 19 0.00 PIERREFEU DU VAR, FRANCE
91 2182 MICHEL BENJAMIN 01:53:09:000 C 20 0.00 NICE, FRANCE
92 2616 HERMIEU GUILLAUME 01:53:09:000 C 21 0.00 HYERES, FRANCE
93 2013 PAOLI VINCENT 01:53:10:000 C 22 0.00 MARSEILLE, FRANCE
94 2633 LEMFANT WILLY 01:53:10:000 D 10 0.00 LE TIGNET, FRANCE
95 2065 ADAM ANNE 01:53:45:000 AB 2 0.00 TOULON, FRANCE
96 2273 GUEGAN LAURENT 01:53:46:000 D 23 0.00 HYERES, FRANCE
97 2194 PELLE MAXIME 01:53:48:000 C 23 0.00 VALBONNE, FRANCE
98 2217 CHABRAND PIERRE 01:54:19:000 D 24 0.00 MARSEILLE, FRANCE
99 2285 BRUNO MATHIAS 01:54:19:000 D 11 0.00 HYERES, FRANCE
100 2091 ROSE BENJAMIN 01:54:20:000 D 12 0.00 CHATEAUNEUF LE ROUGE, FRANCE
101 2283 MARTIN TOM 01:54:20:000 D 13 0.00 HYERES, FRANCE
102 2073 GUEUDET DANIEL 01:54:21:000 F 7 0.00 LA LONDE, FRANCE
103 2428 JOLIT MAX 01:54:22:000 E 28 0.00 HYERES, FRANCE
104 2431 BLANC ALAIN 01:54:22:000 E 29 0.00 HYERES, FRANCE
105 2466 CHERVIN MARC 01:54:22:000 E 30 0.00 CLUNY, FRANCE
106 2190 DUNIS DAVID 01:54:23:000 C 24 0.00 LA LONDE LES MAURES, FRANCE
107 2613 DOS SANTOS JEAN MARC 01:54:23:000 D 25 0.00 BRIGNOLES, FRANCE
108 36 MICHALON ALAIN 01:54:24:000 E 31 0.00 COGOLIN, FRANCE
109 893 LAJUS MATHIEU 01:54:24:000 C 25 0.00 LES ORRES, FRANCE
110 2230 SCARPA STEPHANE 01:54:25:000 D 26 0.00 MARSEILLE, FRANCE
111 2420 GAULIN ERIC 01:54:25:000 C 26 0.00 TOULON, FRANCE
112 2421 LEGER ISABELLE 01:54:25:000 A 1 0.00 LA LONDE, FRANCE
113 2432 BLANC NICOLAS 01:54:25:000 C 27 0.00 HYERES, FRANCE
114 2419 COUTURIER MATHIEU 01:54:26:000 D 14 0.00 HYERES, FRANCE
115 2462 CHABERT GERARD 01:54:26:000 E 32 0.00 SIX FOURS, FRANCE
116 2467 LEVEQUE BRUNO 01:54:27:000 D 27 0.00 HYERES, FRANCE
117 2636 KALB PHILIPPE 01:54:27:000 E 33 0.00 PEYMEINADE, FRANCE
118 2163 KOENIG LAURENT 01:54:28:000 E 34 0.00 HYERES, FRANCE
119 2415 MATTIO FRANCK 01:54:47:000 D 28 0.00 LA GARDE, FRANCE
120 2143 PANCHON PHILIPPE 01:54:48:000 F 8 0.00 TOULON, FRANCE
121 2288 TAINE BERNARD 01:54:48:000 F 9 0.00 SANARY / MER, FRANCE
122 2264 ALLEYRAT OLIVIER 01:55:22:000 D 29 0.00 HYERES, FRANCE
123 2056 CALIGARIS LAURENT 01:55:23:000 D 30 0.00 LA VALETTE, FRANCE
124 2173 DIDELOT RAYMOND 01:55:25:000 G 5 0.00 LE LAVANDOU, FRANCE
125 2487 BAUDET STEPHANE 01:55:35:000 D 31 0.00 LA GARDE, FRANCE
126 2489 DE MEYER OLIVIER 01:55:36:000 C 28 0.00 LE PRADET, FRANCE
127 2495 MERIC SEBASTIEN 01:55:41:000 C 29 0.00 PIERREFEV DU VAR, FRANCE
128 2012 LANGUILLE MARCEL 01:56:41:000 G 6 0.00 TOULON, FRANCE
129 2010 LAMARQUE ALEXANDRE 01:56:43:000 D 32 0.00 HYERES, FRANCE
130 2245 MASSEGLIA ALAIN 01:57:25:000 D 33 0.00 BREIL SUR ROYA, FRANCE
131 2647 TERVILLE DIMITRI 01:57:29:000 D 34 0.00 HYERES, FRANCE
132 2058 PERREUR PHILIPPE 01:57:31:000 E 35 0.00 HYERES, FRANCE
133 2459 TRAMBOUZE MICHEL 01:57:32:000 G 7 0.00 LA LONDE LES MAURES, FRANCE
134 2223 BENHAMOU GILLES 01:58:27:000 E 36 0.00 MARSEILLE, FRANCE
135 2220 PAILLIOTTIN HUGO 01:58:28:000 D 15 0.00 CARQUEIRANNE, FRANCE
136 2086 LIBOIS PATRICK 01:58:29:000 F 10 0.00 LA COLLE SUR LOUP, FRANCE
137 2474 PICCIO THOMAS 01:58:29:000 C 30 0.00 TOULON, FRANCE
138 2498 PATIN JEAN LUC 01:58:29:000 E 37 0.00 MORMOIRON, FRANCE
139 2221 BELLON STEPHANE 01:58:31:000 D 35 0.00 SALON DE PROVENCE, FRANCE
140 2079 COUSSANES GUILHEM 01:59:28:000 D 16 0.00 RAMATUELLE, FRANCE
141 2205 ISNARD GILBERT 01:59:31:000 G 8 0.00 AIX EN PROVENCE, FRANCE
142 2109 VANNELLE PASCAL 01:59:33:000 E 38 0.00 REGUSSE, FRANCE
143 138 FOURMILLIER MICHEL 01:59:47:000 E 39 0.00 LA CRAU, FRANCE
144 2450 POULALIER JEAN 02:00:05:000 G 9 0.00 ST ALEXANDRE, FRANCE
145 2236 COEFFIC YVON 02:00:44:000 G 10 0.00 BRIGNOLES, FRANCE
146 2084 MENIDREY GUY 02:00:46:000 F 11 0.00 CAISSARGUES, FRANCE
147 2297 LLORENS ERIC 02:00:47:000 D 36 0.00 HYERES, FRANCE
148 109 BRUNO RENE 02:00:48:000 E 40 0.00 LA LONDE, FRANCE
149 2179 EYRAUD YVES 02:00:48:000 F 12 0.00 MIRIBEL LANCHATRE, FRANCE
150 2434 THUILLIE YOHAN 02:00:48:000 C 31 0.00 PORT DE BOUC, FRANCE
151 2067 VEILLEROY DAVID 02:00:49:000 C 32 0.00 GRASSE, FRANCE
152 2490 CHAMBRY JULIEN 02:00:51:000 C 33 0.00 SAINT MAXIMIN LA SAINTE BAUME, FRANCE
153 826 LOUCHART JEAN PIERRE 02:00:54:000 F 13 0.00 VALENTON, FRANCE
154 2078 RINAUDO DAMIEN 02:01:33:000 D 17 0.00 RAMATUELLE, FRANCE
155 2611 CERNEAU THIERRY 02:01:54:000 F 14 0.00 ST TROPEZ, FRANCE
156 2476 BONNET GUY 02:01:56:000 E 41 0.00 LA LONDE, FRANCE
157 2070 MARTINEZ MICHAEL 02:01:58:000 D 18 0.00 NICE, FRANCE
158 142 CAPEZZA GUY 02:02:00:000 E 42 0.00 HYERES, FRANCE
159 2488 SCOTTO ALAIN 02:02:00:000 D 37 0.00 LA GARDE, FRANCE
160 2630 COULMEAU ALAIN 02:02:17:000 G 11 0.00 LA SEYNE CEDEX, FRANCE
161 2023 MULLER GILBERT 02:02:18:000 G 12 0.00 VEYNES, FRANCE
162 2226 GALAS JEAN MARC 02:02:19:000 D 38 0.00 LA GARDE, FRANCE
163 2009 HAMARD ERNEST 02:02:20:000 G 13 0.00 LUNEL, FRANCE
164 2298 POLETTO JEAN PIERRE 02:02:20:000 F 15 0.00 HYERES, FRANCE
165 2207 MAUBLANC MARIE ODILE 02:02:21:000 B 1 0.00 ROUSSILLON, FRANCE
166 2208 MAUBLANC JEAN PAUL 02:02:21:000 F 16 0.00 ROUSSILLON, FRANCE
167 2645 ROCHE GILLES 02:02:21:000 D 39 0.00 VILLENEUVE, FRANCE
168 2653 CARLIER DAMIEN 02:02:22:000 E 43 0.00 DOUAI, FRANCE
169 48 CARLINI ERIC 02:02:23:000 E 44 0.00 PIERREVERT, FRANCE
170 2018 CATTEAUX JEAN-FRANCOIS 02:02:23:000 F 17 0.00 AUBAGNE, France
171 2644 BELTRAMO JEAN MARC 02:02:23:000 D 40 0.00 VILLENEUVE, FRANCE
172 2652 HAMAN GERALD 02:02:33:000 D 41 0.00 CARQUEIRANNE, FRANCE
173 2410 NOGUES PHILIPPE 02:02:56:000 E 45 0.00 CARQUEIRANNE, FRANCE
174 2468 DANGEL STEPHANE 02:03:05:000 D 42 0.00 LA CRAU, FRANCE
175 2483 KAVPP PHILIPPE 02:03:05:000 D 43 0.00 CUERS, FRANCE
176 2071 DHO ROGER 02:03:07:000 G 14 0.00 POURRIERES, FRANCE
177 2433 BOURREE PASCAL 02:03:07:000 E 46 0.00 TOULON, FRANCE
178 2248 GARCIA GILLES 02:03:08:000 E 47 0.00 Breil sur Roya, France
179 2617 GIORDANETTO LORIS 02:03:08:000 D 19 0.00 , FRANCE
180 2172 AUBERT SAULE REMI 02:03:09:000 D 20 0.00 NICE, FRANCE
181 2251 SANTAMARIA JACQUES PIERRE 02:03:09:000 E 48 0.00 CAGNES SUR MER, FRANCE
182 2423 ZERBONIA ROBERT 02:03:09:000 F 18 0.00 HYERES, FRANCE
183 2099 GALLAIRE ANDRE 02:03:10:000 F 19 0.00 AILLVILLERS ER LYAUMONT, FRANCE
184 2650 MINAUD STEPHANIE 02:03:10:000 AB 3 0.00 ST CYR SUR MER, FRANCE
185 2034 VEILLEROY JONATHAN 02:03:11:000 D 21 0.00 MOUANS SARTOUX, FRANCE
186 2443 GEMY JEAN CLAUDE 02:03:11:000 G 15 0.00 LA LONDE LES MAURES, FRANCE
187 2253 BOILLET MARC 02:03:12:000 G 16 0.00 CARQUEIRANNE, FRANCE
188 565 LAUGT MICHEL 02:03:52:000 G 17 0.00 ISTRES, FRANCE
189 2492 KOURDOURLI FARID 02:04:21:000 C 34 0.00 TOULON, FRANCE
190 2601 BRONDINO REGIS 02:04:58:000 E 49 0.00 MARSEILLE, FRANCE
191 2081 CEAUX PHILIPPE 02:05:06:000 E 50 0.00 LA BOURBOULE, FRANCE
192 2453 SEVAUX CLAIRE 02:05:09:000 A 2 0.00 , FRANCE
193 96 PALLANCA JULIEN 02:05:11:000 C 35 0.00 LA FARLEDE, FRANCE
194 5 SIMON NATHALIE 02:05:51:000 AB 4 0.00 MARSEILLE, FRANCE
195 538 BERGEL PIERRE 02:06:16:000 E 51 0.00 CARROS LE NEUF, FRANCE
196 2186 MARTIN SIMON 02:06:16:000 G 18 0.00 MOUGINS, FRANCE
197 2480 LOMBARDOT CHARLES 02:06:16:000 D 22 0.00 HYERES, FRANCE
198 2135 RAMDANI MALIKA 02:06:18:000 A 3 0.00 LABOUTARIE, FRANCE
199 2042 BERTHIER REMY 02:06:25:000 F 20 0.00 BORMES LES MIMOSAS, FRANCE
200 2417 BOULET RAYMOND 02:06:26:000 G 19 0.00 VERNEUIL SUR AVRE, FRANCE
201 2278 FAVREAU BENOIT 02:06:28:000 D 44 0.00 HYERES, FRANCE
202 2213 MAIMOUN RICHARD 02:06:29:000 E 52 0.00 MARSEILLE, FRANCE
203 2255 LUCAS DANIEL 02:06:29:000 G 20 0.00 SAHURS, FRANCE
204 2638 FORNASERO HENRI 02:06:30:000 G 21 0.00 MARSEILLE, FRANCE
205 2435 PUGET PHILIPPE 02:06:31:000 D 45 0.00 BORMES LES MIMOSAS, FRANCE
206 2138 PETITJEAN CHRISTOPHE 02:06:32:000 D 46 0.00 HYERES, FRANCE
207 2080 HERPIN RENE 02:06:33:000 G 22 0.00 LA LONDE LES MAURES, FRANCE
208 2235 SCHMITZ ROBERT 02:06:33:000 G 23 0.00 WILTZ, LUXEMBOURG
209 2449 SANTINI CHRISTOPHE 02:07:22:000 D 47 0.00 SALON DE PROVENCE, FRANCE
210 2145 CUCCIA ROBERT 02:07:24:000 F 21 0.00 TOULON, FRANCE
211 2146 JEAN BAPTISTE MARC 02:07:24:000 F 22 0.00 MONTFORT/ARGENS, FRANCE
212 2426 LAHAYE PHILIPPE 02:07:25:000 F 23 0.00 SANARY SUR MER, FRANCE
214 2203 DAVIGNON MICLO FREDERIC NELLY 02:08:05:000 H 2 0.00 TARADEAU, FRANCE
215 2405 COLLOMBAT MICHEL 02:08:05:000 G 24 0.00 LA FARLEDE, FRANCE
216 2439 LOQUET BAYARD FRANCOIS 02:08:06:000 E 53 0.00 NICE, FRANCE
217 2627 BABIN CHRISTIAN 02:08:08:000 E 54 0.00 LA LONDE, FRANCE
218 2104 BOZONNIER CLAUDE 02:08:12:000 F 24 0.00 LA BOUILLADISSE, FRANCE
219 2142 SERRA MICHEL 02:08:15:000 F 25 0.00 SIX FOURS, FRANCE
220 2491 GONZALES BENJAMIN 02:08:15:000 C 36 0.00 TOULON, FRANCE
221 2087 BOZONNIER GREGORY 02:08:16:000 C 37 0.00 SIMIANE-COLLONGUE, FRANCE
222 2214 DURAND FRANCIS 02:08:16:000 F 26 0.00 CUERS, FRANCE
223 2469 AUDIBERT BERNARD 02:08:17:000 F 27 0.00 HYERES, FRANCE
224 2168 DALMASSO MICHELE 02:08:18:000 AB 5 0.00 LA TRINITE, FRANCE
225 2054 LEDEUFF SERGE 02:08:20:000 E 55 0.00 MARSEILLE, FRANCE
226 2416 ADAM DANIEL 02:08:20:000 F 28 0.00 TOULON, FRANCE
227 2477 MARIE J.CLAUDE 02:08:23:000 F 29 0.00 LA CHEVROLIERE, FRANCE
228 2607 HENRY CLAUDE 02:08:25:000 G 25 0.00 PLANCOET, FRANCE
229 2642 RIGHESCH WILFRID 02:08:34:000 D 48 0.00 BRIGNOLES, FRANCE
230 2284 DECIZE LIONEL 02:08:35:000 D 49 0.00 TOULON, FRANCE
231 2424 RACO FRANCIS 02:08:43:000 D 50 0.00 LA CRAU, FRANCE
232 2075 ARNOUX BERNARD 02:09:55:000 E 56 0.00 TOULON, FRANCE
233 2485 CUTAIA ROBERT 02:09:59:000 F 30 0.00 TOULON, FRANCE
234 2294 BARTOLINI MICHEL 02:10:00:000 F 31 0.00 LA VALETTE DU VAR, FRANCE
235 2197 GEGGIOLI JEAN PHILIPPE 02:10:03:000 E 57 0.00 LA LONDE, FRANCE
236 2252 TARBY VALERE 02:10:08:000 D 51 0.00 CARQUEIRANNE, FRANCE
237 17 VIRENQUE NATHALIE 02:10:10:000 A 4 0.00 , FRANCE
238 2227 FORNERA SILVANO 02:11:27:000 F 32 0.00 BELLINZONA, SUISSE
239 2152 VINAI YVES 02:11:28:000 F 33 0.00 LE VAL, FRANCE
240 2102 CORRIEZ ROBERT 02:11:29:000 G 26 0.00 SOLLIES PONT, FRANCE
241 2409 NOGUES BRIGITTE 02:11:31:000 AB 6 0.00 CARQUEIRANNE, FRANCE
242 2267 OLSTHOORN KAREL 02:11:37:000 F 34 0.00 HYERES, FRANCE
243 2154 CHIESI ALAIN 02:11:47:000 E 58 0.00 HYERES, FRANCE
244 2133 BLANCHARD STEPHANE 02:11:53:000 D 52 0.00 HYERES, FRANCE
245 2093 LEIMGRUBER JEAN MARC 02:11:54:000 D 53 0.00 HYERES, FRANCE
246 2046 ESCAFIT FRANCK 02:11:55:000 E 59 0.00 MARSEILLE, FRANCE
247 2004 PLANCADE ROBERT 02:11:58:000 G 27 0.00 LUNEL, FRANCE
248 2452 ARPAIA RODOLPHE 02:11:58:000 F 35 0.00 MARSEILLE, FRANCE
249 2475 LEMETEYER EMILE 02:11:58:000 G 28 0.00 BOUGUENAIS, FRANCE
250 1458 BOSOM YVES 02:12:51:000 F 36 0.00 PRADES, FRANCE
251 2127 LIBOIS MICHEL 02:13:34:000 G 29 0.00 ANTIBES, FRANCE
252 2031 CARANTA DENIS 02:13:58:000 E 60 0.00 LA CROIX VALMER, FRANCE
253 2626 GOETZ RENE 02:14:44:000 G 30 0.00 BARCARES, FRANCE
254 2234 HUBSCHWERLIN DANIEL 02:14:46:000 G 31 0.00 PEYMEINADE, FRANCE
255 2448 VASSEUR LAURENT 02:14:47:000 D 54 0.00 TOULON, FRANCE
256 2128 GAGNARD FRANCOIS 02:14:49:000 G 32 0.00 ST LAURENT DU VAR, FRANCE
257 2295 DI PALMA JOSE 02:14:50:000 E 61 0.00 HYERES, FRANCE
258 2270 GEGGIOLI MARIO 02:14:51:000 D 23 0.00 LA LONDE, FRANCE
259 2637 PICQ THIERRY 02:14:51:000 G 33 0.00 MARSEILLE, FRANCE
260 2126 DUCROCQ GERARD 02:14:53:000 F 37 0.00 CARNOULES, FRANCE
261 2055 ADAM DENIS 02:14:54:000 D 55 0.00 OLLIOULES, FRANCE
262 2291 BAUDEMONT FRANCOIS 02:14:55:000 D 56 0.00 HYERES CEDEX, FRANCE
263 2120 ELLAK GERARD 02:15:05:000 F 38 0.00 NICE, FRANCE
264 2111 AITTAHAR PIERRE 02:15:30:000 D 24 0.00 CARROS, FRANCE
266 32 MARCHOT GUY 02:16:15:000 F 39 0.00 AIX EN PROVENCE, FRANCE
267 2069 DESMARIS MICHEL 02:16:16:000 F 40 0.00 SAINT PIERRE D ALBIGNY, FRANCE
268 2083 TISSINIER DENIS 02:16:16:000 D 57 0.00 DIGNE LES BAINS, FRANCE
269 2039 FEUGIER JEROME 02:16:48:000 C 38 0.00 VALENCE, FRANCE
270 2228 PICCIO BERNARD 02:16:49:000 F 41 0.00 TOULON, FRANCE
271 2076 VALLE PATRICK 02:16:56:000 E 62 0.00 HYERES, FRANCE
272 2623 RICARD ALEXANDRE 02:17:05:000 G 34 0.00 VILLEVEYRAC, FRANCE
273 2624 BOUTIER MORGAN 02:17:05:000 C 39 0.00 , FRANCE
274 2256 LALLEMANT MICHEL 02:17:07:000 G 35 0.00 ST CHAFFREY, FRANCE
275 166 BOUVIER MARC 02:17:14:000 D 58 0.00 HYERES, FRANCE
276 2233 SCOTTO GERARD 02:17:42:000 F 42 0.00 HYERES, FRANCE
277 2296 VAN DER WAL JAN 02:17:42:000 G 36 0.00 HELLEVOETSLUIS, Pays-Bas
278 2202 ROUCHOUSE GUY 02:17:44:000 F 43 0.00 PERTUIS, FRANCE
279 2121 PECRESSE YVES 02:17:45:000 G 37 0.00 CAGNES SUR MER, FRANCE
280 2130 LAVADOUX LAETITIA 02:17:45:000 A 5 0.00 LA LONDE LES MAURES, FRANCE
281 2045 ROUISON ROBERT 02:17:46:000 G 38 0.00 SAINT RAPHAEL, FRANCE
282 2077 JARDET JEAN LOUIS 02:17:48:000 D 59 0.00 LA FARLEDE, FRANCE
283 24 TINARD PIERRE 02:18:12:000 D 25 0.00 , FRANCE
284 23 SANTANIELLO PATRICK 02:18:15:000 E 63 0.00 , FRANCE
285 2117 ROSELLO VIRGINIE 02:18:25:000 AB 7 0.00 LA GARDE, FRANCE
286 2279 JULIEN NICOLAS 02:18:29:000 C 40 0.00 TOULON, FRANCE
287 107 TOCHE JEAN MARIE 02:18:40:000 D 60 0.00 HYERES, FRANCE
288 2165 SCHEUER MICHEL 02:18:40:000 D 61 0.00 HYERES, FRANCE
289 2407 AMIC SEBASTIEN 02:18:40:000 C 41 0.00 HYERES, FRANCE
290 2608 PERUCCA DANIEL 02:19:14:000 G 39 0.00 CAGNES SUR MER, FRANCE
291 2460 GRESSEZ STEPHANE 02:19:18:000 E 64 0.00 LA CRAU, FRANCE
292 2603 TEISSIER FREDERIC 02:19:18:000 E 65 0.00 ISTRES, FRANCE
293 2461 LEFEVRE DAMIEN 02:19:19:000 D 62 0.00 TOULON, FRANCE
294 2604 AUBERT CHRISTIAN 02:19:20:000 E 66 0.00 FONTVIEILLE, FRANCE
295 2700 DEANDREIS GERARD 02:19:24:000 F 44 0.00 NICE, FRANCE
296 2052 RIAUSSET SEBASTIEN 02:19:26:000 D 26 0.00 PEGOMAS, FRANCE
297 2025 MOINE PIERRE 02:20:04:000 C 42 0.00 TOULON, FRANCE
298 2171 JEGO FRANCK 02:20:06:000 D 63 0.00 HYERES, FRANCE
299 2053 AITTAHAR SAID 02:20:28:000 E 67 0.00 CARROS, FRANCE
300 2119 DAUCHY VERONIQUE 02:20:32:000 A 6 0.00 CASTAGNIERS, FRANCE
301 2442 HANSJORG KREZDORN 02:20:35:000 G 40 0.00 ALZEN, ALLEMAGNE
302 2499 DEBAIL DOMINIQUE 02:20:35:000 E 68 0.00 SORGUES, FRANCE
303 2033 BERTHET CHRISTOPHE 02:20:36:000 D 64 0.00 LE ROURET, FRANCE
304 2110 OUDINOT CLAUDE 02:20:36:000 F 45 0.00 MONACO, 24
305 2458 FATON BERNARD 02:20:37:000 G 41 0.00 DOMPIERRE SUR MONT, FRANCE
306 2635 ROCHE XAVIER 02:20:56:000 D 65 0.00 LE LAVANDOU, FRANCE
307 2292 GIRON ERIC 02:21:48:000 E 69 0.00 HYERES, FRANCE
308 2022 MIENS MICHEL 02:21:51:000 F 46 0.00 VOLX, FRANCE
309 2113 SANTANA ANTOINE (TONY) 02:22:03:000 G 42 0.00 BANDOL, FRANCE
310 2137 DOMENICHINO JEAN 02:22:03:000 G 43 0.00 AUBAGNE, FRANCE
311 2149 NICOLAS RAYMOND 02:22:06:000 F 47 0.00 LE VAL, FRANCE
312 2151 GONTARD PATRICK 02:22:06:000 F 48 0.00 BRIGNOLES, FRANCE
313 2258 PACOT GILLES 02:22:15:000 F 49 0.00 MONTCHANIN, FRANCE
314 2189 ROZE MICHAEL 02:22:31:000 D 66 0.00 TOULON, FRANCE
315 2030 CARANTA SYLVIE 02:22:53:000 AB 8 0.00 LA CROIX VALMER, FRANCE
316 2640 PINAULT STEPHANE 02:23:50:000 D 67 0.00 HYERES, FRANCE
317 2609 PLANES FABRICE 02:23:53:000 C 43 0.00 LE REVEST LES EAUX, FRANCE
318 2282 ZEUGIN J.LOUIS 02:23:58:000 G 44 0.00 HYERES, FRANCE
319 16 JEANBEL BRUNO 02:24:01:000 D 68 0.00 , FRANCE
320 42 BARDE ANGE 02:24:01:000 D 69 0.00 , FRANCE
321 2003 CELLIER GEORGES 02:24:20:000 G 45 0.00 SAINT FLOUR, FRANCE
322 2269 JONNIER DIANE 02:24:24:000 B 2 0.00 HYERES, FRANCE
323 2445 MEJANE BRUNO 02:24:25:000 F 50 0.00 HYERES, FRANCE
324 25 BONNAFOUS CHRISTOPHE 02:25:27:000 D 70 0.00 , FRANCE
325 2148 PODEVIN PATRICK 02:25:30:000 F 51 0.00 TOULON, FRANCE
326 2641 SANCHEZ LUIS MANUEL 02:25:31:000 E 70 0.00 AIX EN PROVENCE, FRANCE
327 2272 PASQUET MARC HERVE 02:25:38:000 D 71 0.00 TOULON, FRANCE
328 2140 BONNET GEORGES 02:25:40:000 E 71 0.00 TOULON, FRANCE
329 2176 POLI EMMANUEL 02:26:03:000 D 27 0.00 PEYROLLES EN PROVENCE, FRANCE
330 15 ADAMO FRANCK 02:26:04:000 E 72 0.00 , FRANCE
331 14 COATTI JEAN LOUIS 02:26:05:000 E 73 0.00 , FRANCE
332 2108 RAMPIN ERIC 02:26:20:000 E 74 0.00 SOLLIES PONT, FRANCE
333 44 CANESTRINI GEORGES 02:26:31:000 F 52 0.00 , FRANCE
334 2185 SAINT MARTIN LUC 02:26:32:000 E 75 0.00 CHATEAUNEUF LE ROUGE, FRANCE
335 2074 DE LUZ VAZ ALAIN 02:26:37:000 D 72 0.00 TOULON, FRANCE
336 2066 VERDU MICHAEL 02:26:40:000 C 44 0.00 LA SEYNE S/MER, FRANCE
337 2132 SORIANO MARIO 02:27:07:000 E 76 0.00 LA VALETTE, FRANCE
338 2250 SCAIA JEAN MARIE 02:27:13:000 E 77 0.00 ST DALMAS DE TENDE, FRANCE
339 2247 CARENCO CHRISTIAN 02:27:14:000 F 53 0.00 BREIL SUR ROYA, FRANCE
340 2494 NUSS JEAN PIERRE 02:27:16:000 G 46 0.00 MUTZIG, FRANCE
341 22 MAGRINI JEAN JACQUES 02:27:39:000 F 54 0.00 , FRANCE
342 26 PRETTE PHILIPPE 02:27:51:000 E 78 0.00 , FRANCE
344 2060 CESARI RENE 02:27:54:000 F 55 0.00 TRANS EN PROVENCE, FRANCE
345 2219 SCOTTO THERESE 02:27:54:000 B 3 0.00 HYERES, FRANCE
346 729 BOUDON PHILIPPE 02:27:55:000 E 79 0.00 NICE, FRANCE
347 2156 AMEDEO GISELLE 02:27:55:000 B 4 0.00 NICE, FRANCE
348 27 VERLAINE PASCAL 02:27:56:000 E 80 0.00 , FRANCE
349 2625 CORTECCIA DANIEL 02:27:57:000 F 56 0.00 MOUGINS, FRANCE
350 2097 TOUTAIN JACQUES 02:27:58:000 E 81 0.00 TOULON, FRANCE
351 2124 GIORDANI DANIEL 02:27:58:000 F 57 0.00 NICE, FRANCE
352 2275 LION VIRGINIE 02:27:58:000 A 7 0.00 HYERES, FRANCE
353 2643 MAROT SERGE 02:27:58:000 F 58 0.00 HYERES, FRANCE
354 2122 MARZUOLA JEAN 02:27:59:000 G 47 0.00 NICE, FRANCE
355 2125 VIGIER JEAN CLAUDE 02:27:59:000 G 48 0.00 LA GAUDE, FRANCE
356 2059 VERMASSE MICHEL 02:28:00:000 F 59 0.00 TRANS EN PROVENCE, FRANCE
357 2649 REBUFFAT FREDERIC 02:28:00:000 C 45 0.00 HYERES, FRANCE
358 2014 PAOLI BENJAMIN 02:28:01:000 D 28 0.00 MARSEILLE, FRANCE
359 2198 BRUNOLD MARTIAL 02:28:01:000 D 73 0.00 ST RAPHAEL, FRANCE
360 2631 CAMPAGNOLO JEAN LOUIS 02:28:01:000 E 82 0.00 BOUBLON, FRANCE
361 2249 CHEVALLIER JEAN PATRICK 02:28:02:000 E 83 0.00 CASTAGNIERS, FRANCE
362 2456 GUEGAN JEAN PIERRE 02:28:03:000 G 49 0.00 LA CRAU, FRANCE
363 1 VIRENQUE RICHARD 02:28:20:000 D 74 0.00 CARQUEIRANNE, FRANCE
364 2402 MICHEL DANIEL 02:28:26:000 G 50 0.00 TOULON, FRANCE
365 2062 LE POGAM JEAN MARIE 02:28:28:000 E 84 0.00 LE LAVANDOU, FRANCE
366 841 RACINE ROMAIN 02:28:32:000 C 46 0.00 SAINT PIERRE LES ELBEUF, FRANCE
367 2180 EYRAUD NADINE 02:28:35:000 B 5 0.00 MIRIBEL LANCHATRE, FRANCE
368 2112 CHAFINO ROBERT 02:28:40:000 F 60 0.00 SOLLIES PONT, FRANCE
369 2100 BALLAGER JEAN EMMANUEL 02:28:46:000 E 85 0.00 LA SEYNE S/MER / TEAM KUGO LED LIGT, FRANCE
370 2440 DENIS PERALDI LAURENT 02:30:01:000 D 75 0.00 NICE, FRANCE
371 2136 ROLLIN JEAN MARIE 02:30:02:000 G 51 0.00 ST JULIEN LES METZ, FRANCE
372 2429 GRARE DANIEL 02:30:03:000 F 61 0.00 LA LONDE LES MAURES, FRANCE
373 2038 CANELLA PHILIPPE 02:30:07:000 E 86 0.00 CUERS, FRANCE
374 2027 BETHOULE CHRISTOPHE 02:30:48:000 D 76 0.00 TOULON, FRANCE
375 45 ALBERTINI CHRISTOPHE 02:31:00:000 D 77 0.00 HYERES, FRANCE
376 2656 TIRARD GATEL HELENE 02:32:13:000 A 8 0.00 CHARNECLES, FRANCE
377 2657 LEBRAT DAVID 02:32:13:000 C 47 0.00 PARIS, FRANCE
378 2011 HELON SANDRA 02:32:46:000 A 9 0.00 AFFLIGEM, BELGIQUE
379 1422 AUGEREAU JEAN MICHEL 02:32:47:000 E 87 0.00 MARTIGUES, FRANCE
380 1570 ARTHAUD STEPHANE 02:32:48:000 C 48 0.00 MARSEILLE, FRANCE
381 2144 MANSE YVES 02:32:49:000 F 62 0.00 TOULON, FRANCE
382 1639 SARNELLI JEAN PAUL 02:33:19:000 E 88 0.00 MARSEILLE, FRANCE
383 2479 MOREL FRANCK 02:33:32:000 E 89 0.00 LA LONDE, FRANCE
384 2218 CLEMENT PATRICK 02:33:37:000 D 78 0.00 LA RIVIERE DRUGEON, FRANCE
385 2411 PASQUALINI THIERRY 02:33:55:000 D 79 0.00 HYERES, FRANCE
386 2191 GIRARD YVES 02:35:03:000 F 63 0.00 HYERES, FRANCE
387 2167 LEOBET PASCAL 02:35:04:000 E 90 0.00 HYERES, FRANCE
388 2457 CLOSSET BERNARD 02:36:11:000 F 64 0.00 NAMUR, BELGIQUE
389 2155 BRUGUIER PATRICIA 02:36:31:000 AB 9 0.00 HYERES, FRANCE
390 2437 COSTI FRANCOIS 02:36:40:000 G 52 0.00 ROQUEFORT LA BEDOULE, FRANCE
391 2047 DIACON JEAN FRANCOIS 02:37:23:000 E 91 0.00 LE CANNET, FRANCE
392 2170 PILONE ANDRE 02:37:33:000 G 53 0.00 SEPTEMES LES VALLONS, FRANCE
393 2040 CASTELLS OLIVIER 02:38:33:000 D 80 0.00 MAUGUIO, FRANCE
394 2169 MATTEI ANDRE 02:40:57:000 F 65 0.00 MARSEILLE, FRANCE
395 2206 SEGAL DAMIEN 02:40:57:000 C 49 0.00 MARSEILLE, FRANCE
396 2068 PALIS FRANCOIS 02:41:01:000 I 1 0.00 SEBAZAC, FRANCE
397 2622 VILLECHAIZE PHILIPPE 02:41:03:000 F 66 0.00 TOULON, FRANCE
398 2612 CESPADES DESINE 02:41:09:000 E 92 0.00 LA SEYNE S/MER, FRANCE
399 2028 DESIGAUX OLIVIER 02:41:12:000 D 81 0.00 SAINT RAMBERT D'ALBON, FRANCE
400 2632 TOULOUSE ERIC 02:41:12:000 E 93 0.00 CHATEAURENARD, FRANCE
401 2188 ROBERT YVES 02:41:13:000 G 54 0.00 NICE, FRANCE
402 2118 THIBAUD ROBERT 02:41:19:000 G 55 0.00 NICE, FRANCE
403 2090 CARADEC NOELLE 02:41:46:000 B 6 0.00 LA FARLEDE, FRANCE
404 2210 CARADEC JEAN CLAUDE 02:41:46:000 F 67 0.00 LA FARLEDE, FRANCE
405 2195 ROULLET CHRISTIAN 02:41:48:000 F 68 0.00 ANNONAY, FRANCE
406 2196 DANTRESSANGLE JEAN PAUL 02:42:12:000 F 69 0.00 ANNONAY, FRANCE
407 2418 RACO DOMINIQUE 02:43:12:000 G 56 0.00 LA CRAU, FRANCE
408 2403 DALMAZE JEAN CLAUDE 02:43:19:000 G 57 0.00 TOULON, FRANCE
409 2123 VIRELLO JEAN LOUIS 02:43:41:000 G 58 0.00 NICE, FRANCE
410 2139 GLEYZE JEROME 02:43:41:000 D 82 0.00 PEGOMAS, FRANCE
411 2116 THILL FREDERIC 02:45:21:000 E 94 0.00 TOULON, FRANCE
412 2032 MIGNOT GERARD 02:45:27:000 F 70 0.00 BELLEGARDE POUSSIEU, FRANCE
413 2224 OLIVES GISELE 02:46:11:000 B 7 0.00 MONTEUX, FRANCE
415 2646 FLEURY JACQUES 02:47:09:000 G 59 0.00 LA LONDE, FRANCE
416 2049 OCCELLI MARC 02:47:13:000 E 95 0.00 LE CANNET, FRANCE
418 2164 PAPALLARDO VALERIE 02:47:35:000 AB 10 0.00 HYERES, FRANCE
419 2444 ROY CHRISTIAN 02:48:45:000 D 83 0.00 LE PRADET, FRANCE
420 2115 FAUQUE MONIQUE 02:48:54:000 B 8 0.00 GONTAUD DE NOGARET, FRANCE
421 2187 CONTE CORINE 02:48:54:000 A 10 0.00 PERPIGNAN, FRANCE
422 2105 GAYRAL MARYSE 02:50:30:000 B 9 0.00 TOULON, FRANCE
423 2002 BERMOND CATHERINE 02:50:32:000 AB 11 0.00 VILLARLURIN, FRANCE
424 2602 GONIN CHRISTOPHE 02:54:18:000 C 50 0.00 HYERES, FRANCE
425 2287 HONNORAT ROBERT 02:54:28:000 F 71 0.00 ESPINASSES, FRANCE
426 2095 BOIS NADINE 02:55:27:000 B 10 0.00 TOULON, FRANCE
427 2094 BRASSELET MARC 02:55:28:000 F 72 0.00 TOULON, FRANCE
428 28 DESHENNE ANDRE 02:59:27:000 D 84 0.00 , FRANCE
429 2471 DANGEL PAUL 02:59:27:000 G 60 0.00 HYERES, FRANCE
430 2036 DAX MARIE BLANCHE 03:02:09:000 B 11 0.00 BOULT AUX BOIS, FRANCE
431 2050 OCCELLI JEROME 03:02:13:000 D 29 0.00 LE CANNET, FRANCE
432 2051 PECCOLO JEAN MARIE 03:02:14:000 F 73 0.00 CANNES, FRANCE
433 2129 SANCHEZ JOSE LUIS 03:02:23:000 G 61 0.00 AIX EN PROVENCE, FRANCE
434 2008 GRAMA SALIM 03:02:24:000 E 96 0.00 SAINT MARTIN LE VINOUX, FRANCE
435 2610 LEBARON RAYMOND 03:02:27:000 G 62 0.00 ST LAURENT DU VAR, FRANCE
436 2017 SANCHEZ XAVIER 03:03:11:000 E 97 0.00 AIX EN PROVENCE, FRANCE
437 2015 VIENOT GERALD 03:04:13:000 E 98 0.00 AIX EN PROVENCE, FRANCE
438 2446 FISCHER DANIEL 03:04:42:000 F 74 0.00 MONTEUX, FRANCE
439 2447 FISCHER MARYSE 03:04:46:000 AB 12 0.00 MONTEUX, FRANCE
440 2043 OUSSELLY SIMONE 03:07:04:000 B 12 0.00 ROQUEBRUNE SUR ARGENS, FRANCE
441 2430 DARMON NICOLAS 03:08:44:000 C 51 0.00 MARSEILLE, FRANCE
442 2201 MARSOL CLAUDE 03:09:24:000 G 63 0.00 NICE, FRANCE
443 11 DUPRONT JEAN FRANCOIS 03:15:54:000 E 99 0.00 , FRANCE
444 2470 BASTIEN GEORGES 03:16:49:000 G 64 0.00 CHEVILLON, FRANCE
445 2497 GILLY ROGER 03:16:49:000 F 75 0.00 BOURG-D OISANS, FRANCE
446 2007 GALLARDO SYLVESTRE 03:18:26:000 G 65 0.00 MONTROND LES BAINS, FRANCE
447 2041 LECENE CLAUDE 03:18:26:000 G 66 0.00 MAUGUIO, FRANCE
448 2300 DISARO ALAIN 03:25:01:000 F 76 0.00 LE LAVANDOU, FRANCE
449 2401 ARTS ROGER 03:25:03:000 G 67 0.00 METZ, FRANCE
450 2299 VISSER JAN 03:25:04:000 F 77 0.00 ZWOLLE, Pays-Bas
451 2620 AUGUSTE LOUIS 03:26:52:000 D 30 0.00 CABANNES, FRANCE
452 602 VIGNAUD ANDRE 03:48:23:000 D 31 0.00 PORTES LES VALENCE, FRANCE
454 2425 NICOLAU GUY 06:08:13:000 F 78 0.00 HYERES, FRANCE

GRANFONDO VOSGES

Nous sommes en contact depuis plusieurs jours avec les collectivités locales afin d'échanger sur la tenue de la Granfondo Vosges 2020 et voici ce qu'il en ressort :

-Vu la situation liée au Covid-19
-Vu le calendrier de fin de saison des cyclosportives.
-Vu le calendrier de la commune de La Bresse qui nous accueille.

Nous allons reporter La Granfondo Vosges au 27 Septembre 2020.

Pour les personnes déjà inscrites, vous n'avez rien à faire, votre inscription est automatiquement reportée.

Dans le cas où vous ne pourriez pas vous rendre disponibles à cette date là, vous pouvez nous le signaler et nous pourrons vous indiquer les conditions pour reporter votre inscription pour la Granfondo Vosges 2021.

Prenez soin de vous !
TOP